CAPE
2490 1406 1448 2168 2031 1937 1712 1635 1575 1979 2132 2247 2254 2290 2265 2173 2224 2248 2116 1907 1917 1883 1863 1903 1886 1842 1836 1832 1894 1678 1630 1596 1548 1398 1154 1162 1172 1207 1356 1345 1498 1475 1458 1480 1347 1303 1203 1184 1076 822 608 598 589 561 560 670 649 725 963 982 1184 1305 1513 1540 1492 1426 1392 1524 1568 1341 1266 1248 1140 937 836 787 556 761 671 1102 664 545 442 438 425
2552 1391 1493 1941 2058 1987 1750 1690 1791 1966 2063 2114 2284 2204 2318 2268 2256 2217 2053 1976 1968 1926 1914 1946 1972 1918 1899 1882 1868 1668 1549 1454 1356 1286 1222 1164 999 964 980 1033 1066 1579 1544 1438 1313 1102 950 929 985 788 614 541 570 488 408 428 708 847 775 1078 1065 1075 1084 1157 1251 1353 1294 1198 1310 1153 975 1127 1013 942 897 753 735 668 609 589 414 115 218 495 494
2570 1344 1463 1861 1997 1968 1880 1811 1884 1966 2070 1927 2108 2113 2175 2201 2185 2105 2046 2011 1991 1993 1991 1995 2006 1950 1936 1744 1657 1624 1461 1350 1308 1260 1176 1119 1060 941 841 796 903 973 801 702 978 934 794 738 871 941 971 685 602 561 551 704 775 829 848 883 947 941 815 734 808 721 1087 1225 1409 1160 1149 1049 994 868 865 726 550 564 440 363 276 211 219 255 189
1886 1438 1508 2061 2015 2019 2002 1805 1515 1918 1916 1837 2049 2050 2033 2060 2048 2033 1974 2047 1998 1986 2010 1953 1964 1991 1916 1705 1616 1589 1416 1353 1267 969 836 836 856 790 712 642 724 875 825 836 933 968 966 908 779 816 934 1007 854 833 780 837 936 954 972 997 989 957 955 906 980 770 618 778 1134 1353 1149 705 677 701 573 523 594 496 400 194 167 355 436 324 187
1807 1553 1691 1866 1817 1970 1956 1860 1899 1792 1728 2038 2033 1947 2024 1961 1983 2024 2060 2081 2084 2031 2027 2108 2016 1958 2004 1766 1623 1443 1364 1291 1170 1021 952 813 668 609 617 607 522 596 882 943 1009 1007 904 832 922 918 948 847 726 654 722 704 890 915 984 1046 1041 947 789 1000 906 1147 989 909 836 1263 1534 326 507 610 514 673 634 385 170 225 175 18 117 232 152
1848 1508 1336 1404 1598 1770 1974 1964 1842 1779 1891 2057 2065 2007 2022 2027 2074 2110 2160 2182 2143 2132 2131 2112 2034 1986 1991 1895 1724 1463 1330 1206 1069 950 862 654 312 185 175 374 496 408 579 845 1000 1058 990 948 1041 948 901 965 890 854 883 834 735 819 930 785 906 958 915 987 1214 1144 1177 1610 1164 587 1005 403 266 582 778 665 618 447 303 421 413 63 397 660 390
1863 1345 961 1215 1574 1773 2018 1949 1725 1876 1981 2048 2022 2060 2068 2055 2119 2224 2156 2198 2164 2181 2122 2060 2114 2021 1927 1891 1798 1553 1304 1143 1032 1033 892 662 623 556 443 356 170 229 538 940 969 1011 1052 1042 900 1074 996 1026 1015 994 1017 1081 1250 1161 768 1090 857 1030 964 1241 1125 1331 1480 1277 727 718 848 38 364 658 663 514 511 476 752 628 658 420 424 510 278
1815 1416 1101 1202 1574 1930 1994 1868 1813 1963 2035 2017 1998 2061 2066 2083 2164 2187 2222 2136 2186 2176 2230 2050 2051 1949 1872 1800 1667 1488 1292 1220 1208 1019 817 793 714 412 363 410 374 452 560 875 873 1003 1132 1080 1010 1108 1146 934 1097 1306 1406 1541 1613 1725 1646 1290 1332 1532 1386 1349 1588 1561 1677 1599 929 1 0 39 203 440 828 741 739 713 912 805 859 591 542 540 500
1663 1455 1365 1379 1657 1887 1933 1775 1856 1964 2074 2040 2027 2077 2119 2124 2122 2163 2193 2214 2202 2232 2152 2041 2028 1919 1782 1757 1652 1429 1329 1117 1054 1082 762 460 423 494 670 621 545 470 547 680 930 1056 1065 1215 1186 1091 1076 1008 1172 1386 1572 1749 1961 1917 1940 1694 1917 1639 1887 1747 1720 2051 1492 1126 1 12 58 34 73 211 752 769 662 710 891 882 708 636 576 390 436
1617 1590 1688 1602 1640 1913 1836 1762 1893 1872 2066 2067 2015 2122 2212 2165 2079 2099 2178 2224 2291 2246 2076 2010 2012 1820 1798 1669 1365 1268 1121 1022 902 955 821 522 334 375 412 512 534 558 679 779 960 1128 1126 1281 1279 852 936 1093 1240 1462 1690 1901 2088 1964 1933 1730 1589 1800 1670 1656 1843 1704 1536 971 0 124 567 52 19 243 667 792 740 792 821 932 896 809 687 449 332
1725 1930 1916 1452 1575 1899 1780 1850 1978 1937 2071 2061 2152 2189 2160 2139 2114 2173 2206 2228 2201 2193 2110 2104 1980 1852 1744 1590 1246 1155 1117 1081 1184 1143 922 748 609 566 553 610 602 600 692 843 985 1304 1280 1133 1071 864 988 1329 1330 1232 1452 1838 1957 1944 1794 1724 1507 1613 1308 1757 1972 811 973 6 0 54 496 462 49 447 930 937 995 886 877 880 856 767 694 656 478
1927 2295 1903 1418 1951 1848 1872 1934 2054 2057 2166 2148 2214 2258 2176 2172 2217 2202 2188 2241 2172 2225 2167 2070 1946 1739 1736 1604 1373 1354 1379 1388 1133 975 871 632 570 535 564 580 553 581 602 596 1106 1178 1157 914 937 1036 1067 1074 1167 1235 1253 1307 1702 1886 1854 1774 1654 1674 1832 1515 1354 811 791 0 8 122 111 88 287 753 1182 1209 1135 1028 846 910 900 941 804 663 638
2057 2342 1875 1634 1688 1924 1984 2012 2077 2224 2104 2219 2318 2252 2176 2192 2216 2182 2233 2280 2234 2189 2171 2000 1829 1739 1714 1678 1623 1535 1399 1143 1002 966 792 548 591 534 536 600 658 706 726 902 1086 950 1094 1056 957 1217 1150 1165 1355 1252 1157 1409 1411 1718 1756 2132 1940 2115 1813 1536 1100 728 694 0 36 317 480 384 716 1362 1387 1350 1153 1008 956 955 1003 942 916 696 560
2621 2448 1826 1371 1644 1976 2070 2041 2142 2242 2234 2368 2396 2333 2261 2282 2237 2284 2270 2322 2221 2244 2095 1920 1812 1765 1783 1768 1648 1492 1394 1183 1023 873 694 573 463 483 510 502 583 621 642 855 1032 1077 1043 1342 1425 1405 1622 1485 1314 1272 1476 1298 1408 1449 1685 1938 1627 2180 2111 1479 937 760 668 7 52 494 559 413 536 1414 1634 1495 1247 1165 1222 1062 978 960 921 848 610
2625 2286 2063 1443 1757 1762 2056 2158 2230 2336 2443 2459 2462 2394 2353 2368 2367 2350 2358 2270 2276 2164 2028 1941 1869 1816 1920 1718 1507 1381 1217 989 825 715 619 548 460 528 448 475 553 586 635 848 989 1124 1264 1269 1286 831 1003 1400 1076 1417 1205 1410 1326 1550 1733 1686 2044 1978 1913 1208 579 362 38 4 298 334 444 284 1387 1506 1517 1359 1379 1284 1376 1278 1144 1093 1076 904 799
2581 2154 1889 1441 1478 1387 1654 1936 2325 2481 2538 2506 2487 2424 2310 2362 2408 2381 2416 2292 2248 2197 2042 1958 1840 1847 1839 1588 1359 1151 932 772 736 587 480 485 393 417 464 488 571 662 737 822 997 1158 1129 1078 892 1179 862 900 1404 1173 1560 1259 1321 1545 1544 1667 1540 1963 2089 2218 1097 418 316 0 199 460 346 652 1210 1313 1399 1213 1489 1405 1402 1405 1365 1330 1168 997 844
2097 2290 1694 1248 1383 1108 1246 1690 2086 2557 2573 2517 2508 2378 2379 2462 2440 2405 2332 2290 2182 2100 2042 1926 1773 1747 1665 1376 1155 897 641 643 596 464 382 325 234 296 437 564 675 686 767 881 955 1173 1134 1150 1191 1103 1161 897 472 1273 1359 1447 1345 908 1362 1976 2003 2082 1984 2192 1230 699 723 12 8 505 458 520 1662 1557 1230 1320 1373 1597 1544 1491 1531 1368 1160 908 757
1994 1713 1484 1165 1000 1008 1017 1582 1849 2170 2333 2595 2513 2498 2495 2524 2411 2354 2176 2164 2113 1975 1874 1789 1626 1445 1326 1093 840 698 596 421 421 360 248 158 274 302 412 510 586 632 758 871 1033 942 1142 1117 941 1281 934 933 1138 627 730 1020 1093 1422 1541 1287 1873 2267 2229 2568 1236 637 730 36 520 1178 875 689 1113 1587 1439 1201 1159 1237 1372 1538 1521 1468 1196 1000 800
1611 1618 1371 1127 1053 927 1005 1396 1512 1578 1943 2247 2238 2492 2503 2492 2336 2244 2154 2088 2039 1868 1695 1493 1328 1124 1013 862 726 604 388 208 139 169 133 162 175 330 387 441 549 647 732 922 1044 1040 861 1053 1091 840 1131 994 932 964 917 969 1062 909 752 1550 1930 2127 2479 2087 588 491 529 60 649 874 692 1001 1622 1755 1251 1188 1146 1030 1272 1331 1513 1535 1453 1112 1026
1608 1552 1308 1142 1087 940 1071 1082 1149 1829 1915 2041 2151 2184 2397 2394 2272 2179 2048 1911 1788 1594 1411 1274 1108 1043 928 858 730 588 409 241 184 163 152 208 266 371 418 498 603 714 724 921 1128 922 719 785 954 853 830 1211 842 699 853 861 872 806 1444 1065 1440 1957 1630 1019 890 879 16 1094 878 672 1539 1880 1933 1234 1453 1371 1297 1292 1311 1441 1461 1547 1502 1360 1093
1739 1592 1307 1304 1381 984 1009 992 1248 1352 1553 1997 2178 2222 2181 2274 2225 2036 1830 1818 1633 1453 1210 1084 966 826 750 657 600 419 228 193 298 159 190 241 388 430 413 653 676 816 792 794 997 804 908 883 666 873 852 608 909 1216 1298 1275 1157 1204 1208 1335 1700 1398 950 845 882 421 471 665 633 894 1811 1793 1591 1698 1600 1618 1473 1462 1456 1411 1557 1569 1627 1553 1455
1349 1547 1308 1100 1191 1265 1172 814 805 1110 1546 1978 2235 2258 2229 2166 2026 1972 1676 1711 1513 1390 1169 950 908 527 349 363 442 504 289 384 91 349 69 232 257 444 326 668 560 646 858 948 787 1200 1108 941 806 667 511 1031 1253 1093 768 954 1102 1224 1468 1667 1497 778 592 746 738 153 759 736 630 1460 1720 1835 1734 1799 1842 1780 1857 1868 1767 1607 1596 1671 1708 1580 1495
1514 1343 1434 1233 1405 1004 1205 756 1290 1364 1764 1928 2169 2272 2106 2057 1894 1788 1671 1651 1568 1505 1010 861 476 71 148 360 799 1202 757 784 846 343 10 275 336 532 541 784 625 689 774 961 1005 683 941 1038 708 799 871 1023 1194 1079 609 460 499 1195 1749 1776 698 538 776 788 554 421 872 1043 1087 1738 1762 1672 1903 1795 1908 1880 1944 1832 1776 1644 1684 1750 1640 1428 1410
1501 1392 1224 1514 1138 992 1342 1118 883 1349 1876 1712 2098 2130 2147 1903 1880 1756 1604 1552 1625 1199 969 780 667 72 6 917 1423 711 1022 596 189 247 706 308 664 629 637 695 701 762 772 880 719 1065 720 618 867 1049 1141 1076 730 649 578 419 786 651 650 474 1049 960 1033 549 205 660 1211 1275 1494 1958 2019 1999 1883 2030 1880 1906 1774 1754 1695 1628 1637 1580 1393 1235 1307
1405 1482 1288 1388 1520 1340 1724 1271 1401 1327 1437 1896 1946 2141 2112 1915 1818 1688 1520 1428 1284 1225 1355 1083 999 136 150 940 793 1064 981 763 1241 1205 513 363 571 253 542 575 560 557 756 728 266 0 220 115 26 368 487 634 414 320 411 765 887 867 671 821 1155 915 284 459 651 1237 1180 1267 1822 1897 1890 1861 1851 1886 1796 1756 1673 1724 1652 1554 1489 1401 1300 1260 1214
1690 1420 1274 1072 1784 1520 1572 1503 1474 1467 1522 1679 1848 2203 2200 1833 1762 1725 1659 1536 1263 1526 1194 1058 920 901 620 389 1236 926 829 0 214 366 291 242 54 48 291 137 289 211 484 72 38 53 0 361 479 482 524 559 630 1163 997 1022 1180 1072 410 363 267 171 192 280 418 1424 1273 1230 1537 1660 1618 1612 1541 1676 1718 1704 1663 1651 1619 1445 1402 1388 1219 1028 1101
1679 1488 1153 1416 2016 1684 1756 1697 1528 1459 1735 1493 1798 2055 2034 1812 1832 1813 1609 1329 1305 1378 1148 1203 837 1014 825 852 837 466 1165 353 550 709 757 3 0 2 3 36 91 36 266 291 303 1201 1173 1259 698 706 878 1086 936 384 411 424 396 182 180 16 95 211 319 335 394 1175 1318 1055 1212 1320 1288 1278 1330 1399 1509 1608 1617 1444 1524 1140 1388 1299 1175 1063 1084
1675 1725 1160 1566 1948 1668 1478 1658 1682 1570 1506 1247 1730 1463 2042 1822 1884 1550 1566 1450 1192 1214 1102 1119 894 902 1282 1513 755 861 1130 1304 1365 1466 1168 124 1 0 0 0 17 73 177 144 1985 1549 1517 837 627 618 660 894 226 464 224 106 17 102 80 90 202 401 416 510 849 1436 1438 976 673 1114 1091 974 1055 1191 1251 1165 1155 1251 1286 1371 1350 1012 842 745 789
1844 1656 1639 1749 2163 2253 2148 1848 1630 1558 1138 1510 1624 1823 1569 1859 2018 1864 1840 1676 1278 1328 1127 1231 669 689 1115 950 718 1222 1320 1405 1177 697 1024 964 556 178 92 149 360 1587 1737 2270 2454 1861 890 748 695 711 869 472 395 678 191 242 56 270 33 34 26 270 447 593 1325 1804 1259 686 629 870 807 767 735 750 736 666 650 631 716 727 676 805 758 726 779
2192 1856 2058 2064 2161 2386 2309 1970 1694 1307 1249 1539 1439 1852 1870 2468 2100 1909 1694 1238 1431 1563 1538 1083 1014 600 1025 1036 850 1435 2129 1403 1344 960 1015 1672 1491 1206 1909 1819 1753 2665 2558 2354 2010 1955 1557 1477 1449 531 407 450 286 524 316 223 1 16 6 62 20 254 352 686 1327 1669 1366 853 570 601 570 537 395 224 159 182 187 145 134 167 221 229 249 254 313
2530 2602 2038 2100 2174 2202 1975 2181 1790 1724 1447 1028 1738 1936 2019 1975 1911 1727 1603 1371 1638 1612 1296 1229 944 760 735 1325 1139 1631 2010 1827 1732 1646 1783 1592 1713 1855 2253 2325 2239 2422 3026 2843 2479 2076 2166 1462 1329 1022 1022 837 664 446 114 146 8 1 28 2 20 218 439 624 1358 1602 1374 843 474 296 519 411 130 32 14 0 0 0 0 0 0 2 4 1 38
2831 2518 2178 2183 2249 2119 2153 2381 2160 2286 1919 977 1919 1742 2030 1914 1954 1625 1643 1470 1670 1357 1338 1351 1069 1074 1101 1225 1977 1706 1890 2004 1896 1849 1602 1716 2029 2028 2702 1773 2546 2422 2755 2835 1970 1985 1672 1209 1264 1766 1160 1608 477 368 296 56 63 0 0 15 22 76 339 397 382 343 1092 1063 688 491 304 143 41 1 0 0 0 0 0 0 0 0 0 0 0
2468 2828 2368 2318 2257 2351 2186 2094 1944 2230 2208 1679 1646 1836 2076 2205 1819 1715 1663 1591 1529 1459 1270 1248 1126 1498 1964 1639 2101 1922 1788 2145 2142 2137 1315 1441 2225 2656 2560 2645 2564 2110 2645 2242 2062 1697 1030 979 1211 1625 329 965 609 391 178 236 22 61 0 142 106 151 226 267 219 78 9 0 6 160 529 154 0 0 0 0 0 0 0 0 0 0 0 0 0
2423 2707 2536 2408 2348 2288 2201 2185 1929 1921 2184 2220 1790 1667 1774 1699 1927 1818 1678 1593 1432 1396 1387 1381 1540 1617 1734 1774 2004 1786 1854 2103 2022 2213 2296 1708 2402 2449 2346 2835 2787 2670 2846 3136 2532 1830 1929 1090 1078 1243 813 667 368 149 342 17 28 16 93 149 206 247 147 72 155 86 3 0 0 0 0 0 34 1 0 0 0 0 0 0 0 0 0 0 0
2455 2539 2470 2384 2475 2334 2206 2121 2165 1826 2244 2053 1757 1754 1943 1769 1315 1250 1570 1670 1458 1359 1356 1493 1554 1560 1646 1839 1961 1981 1716 1934 1986 2253 2190 2305 2208 2500 2229 2312 2758 1866 1451 2143 2575 1931 1569 1886 1124 1149 1057 1211 271 67 118 136 227 94 392 301 189 231 103 69 17 0 1 1 0 0 0 0 0 0 0 0 0 0 0 0 0 0 0 0 0
2530 2757 2605 2323 2354 2336 2118 2018 2169 2135 2115 2205 1915 1842 1694 1886 1564 1363 1734 2018 1375 1062 1274 1357 1275 1585 1570 1644 1694 1795 1707 1932 1886 2199 2577 1946 1753 1966 2006 2778 2260 1896 2425 2886 2532 1336 2014 1982 1073 778 992 628 156 0 286 140 424 392 449 369 275 62 17 1 0 0 0 0 0 0 0 0 0 0 0 0 0 0 0 0 0 0 0 0 0
2756 2897 2648 2405 2299 2192 2026 2025 1995 2223 2139 2142 2002 2183 2028 1804 1726 1773 1952 2052 1569 1357 1142 1426 1300 1390 1450 1398 1657 1993 1861 1841 1951 1581 1473 929 1057 1489 1504 2201 2121 2626 2844 2207 1998 2064 2613 1364 984 846 497 707 274 4 180 0 373 696 410 329 260 182 60 5 0 0 0 0 0 0 0 0 0 0 0 0 0 0 0 0 0 0 0 0 0
2831 2740 2437 2351 2218 2070 2043 2043 1993 2189 2139 2125 2022 2142 1963 1796 1590 1876 2004 1911 1535 1229 1134 1182 1331 1426 1464 1447 1626 1922 1691 950 679 920 990 787 1067 1208 1431 1348 2154 2734 2821 2242 2254 1631 1276 1026 1522 1335 689 310 130 27 0 27 310 294 341 244 134 46 0 0 0 0 0 0 0 0 0 0 0 0 0 0 0 0 0 0 0 0 0 0 0
2580 2507 2364 2238 1983 2001 1978 1909 1854 2178 2202 2223 2223 2225 2273 2140 2015 2147 2178 2084 1463 1550 1592 1284 1313 1500 1625 1403 1424 852 984 922 1261 800 1142 1047 862 951 1113 1232 1183 1287 1504 2044 1625 1217 2080 1113 579 952 1144 84 4 187 0 264 571 259 165 57 66 45 0 0 0 0 0 0 0 0 0 0 0 0 0 0 0 0 0 0 0 0 0 0 0
2532 2406 2063 2188 1613 1871 1892 1583 1727 2174 2156 2218 2173 2005 1988 1863 1773 1774 1880 1780 1318 1300 1562 1558 1672 1499 1093 846 917 1210 1192 1271 942 1135 963 890 707 928 1036 895 1385 1217 1902 1643 1353 1113 777 798 636 232 1012 204 0 6 18 697 327 280 51 104 123 0 0 0 0 0 0 0 0 0 0 0 0 0 0 0 0 0 0 0 0 0 0 0 0
2586 2424 2006 1746 1571 1382 1704 1543 1724 2062 1899 2030 1933 1854 1906 1846 1823 1746 1903 2036 1210 1753 2191 2208 1345 971 923 984 1103 1182 1161 1050 1333 805 1061 797 740 834 726 1362 1140 834 1199 1235 798 649 1151 845 1234 22 378 93 0 0 17 395 540 365 287 167 15 0 0 0 0 0 0 0 0 0 0 0 0 0 0 0 0 0 0 0 0 0 0 0 0
2457 2040 1820 1626 1784 1790 1678 1580 1885 1884 1927 2019 1992 2002 1867 1765 1938 1760 1738 1436 1228 1650 2225 1906 1358 963 978 804 1037 977 928 960 984 1019 772 728 914 899 1163 1334 890 612 1170 570 656 533 446 642 548 801 5 0 0 0 1 577 694 374 265 246 92 0 0 0 0 0 0 0 0 0 0 0 0 0 0 0 0 0 0 0 0 0 0 0 0
2436 1964 1857 1700 1867 1700 1722 1616 1785 1794 1901 2077 1944 1876 1987 2088 2035 1838 1734 1229 967 1374 1628 1494 1312 1017 1010 1023 1138 918 1069 1049 1050 1004 687 695 755 786 1188 966 936 1174 1161 900 778 212 590 330 560 822 95 0 0 0 0 125 138 552 400 168 91 8 0 0 0 0 0 0 0 0 0 0 0 0 0 0 0 0 0 0 0 0 0 0 0
2319 2111 1877 1753 1598 1685 1743 1509 1586 1833 1872 1993 1762 1972 2167 2378 2298 1881 1213 1038 1064 1071 1110 1119 1365 1241 1354 1402 1452 1297 1258 992 991 750 669 747 998 1002 1112 1320 896 525 711 711 121 197 16 101 181 535 831 24 0 0 0 0 0 17 426 468 328 194 16 0 0 0 0 0 0 0 0 0 0 0 0 0 0 0 0 0 0 0 0 0 0
2202 1925 1886 1647 1669 1783 1763 1660 1566 1804 1838 1857 2012 2214 2243 2190 2287 1381 1088 1076 1269 1221 1108 1056 1123 1561 1398 1199 1123 1248 1141 950 810 1041 1242 1096 707 1195 872 490 440 641 520 89 77 17 8 2 123 349 161 44 0 0 0 0 0 0 0 228 494 482 84 0 0 0 0 0 0 0 0 0 0 0 0 0 0 0 0 0 0 0 0 0 0
2340 1996 1828 1656 1730 1885 1773 1595 1585 1874 1865 1984 2099 2217 2033 1934 2155 1522 1184 1178 1122 1309 1386 1085 822 983 1126 1030 1002 1030 821 1013 1102 888 864 772 888 813 793 432 479 418 195 102 12 9 0 0 0 6 33 59 0 0 0 0 0 0 0 0 0 19 9 0 0 0 0 0 0 0 0 0 0 0 0 0 0 0 0 0 0 0 0 0 0
2301 1913 1900 2187 1959 1916 1667 1608 1620 1864 1885 1952 2108 1975 1992 1974 1990 1559 1114 1061 1439 1125 1202 1046 1010 911 889 684 757 710 687 732 564 534 646 482 472 430 364 221 200 3 19 1 0 0 0 0 0 0 0 2 115 0 0 0 0 0 0 0 0 0 0 0 0 0 0 0 0 0 0 0 0 0 0 0 0 0 0 0 0 0 0 0 0
2295 2249 2454 2690 2313 2202 2070 1885 1808 1727 1856 1946 2132 2139 2135 1979 1962 1518 1211 1211 1253 1216 1139 959 982 737 482 552 518 596 564 546 484 430 326 328 338 347 278 82 1 0 0 0 0 0 0 0 0 0 0 0 0 0 0 0 0 0 0 0 0 0 0 0 0 0 0 0 0 0 0 0 0 0 0 0 0 0 0 0 0 0 0 0 0
2366 2462 2502 2423 2237 2124 2045 2233 2190 1851 1841 1991 2067 2215 2181 2080 1828 1120 859 959 1060 1144 876 690 638 629 348 413 438 535 519 491 452 381 301 244 232 235 5 0 0 0 0 0 0 0 0 0 0 0 0 0 0 0 0 0 0 0 0 0 0 0 0 0 0 0 0 0 0 0 0 0 0 0 0 0 0 0 0 0 0 0 0 0 0
2142 2032 2279 2256 2108 2110 2239 2173 1953 2045 2018 2084 2117 2173 2020 1862 1432 960 995 822 673 650 684 639 641 514 323 343 496 539 481 431 361 274 222 151 2 0 0 0 0 0 0 0 0 0 0 0 0 0 0 0 0 0 0 0 0 0 0 0 0 0 0 0 0 0 0 0 0 0 0 0 0 0 0 0 0 0 0 0 0 0 0 0 0
2054 2016 2005 1810 1844 1834 2015 1750 1963 2087 2082 2022 1846 1634 1570 1486 1263 853 988 722 555 704 671 676 579 422 263 316 494 483 412 410 341 267 145 101 0 0 0 0 0 0 0 0 0 0 0 0 0 0 0 0 0 0 0 0 0 0 0 0 0 0 0 0 0 0 0 0 0 0 0 0 0 0 0 0 0 0 0 0 0 0 0 0 0
Wind_Speed
12 15 14 19 19 18 18 18 18 18 17 17 17 18 17 19 20 21 21 23 23 25 26 27 26 27 27 26 23 21 19 18 18 18 16 15 14 13 12 14 14 11 11 10 9 9 8 8 7 6 5 5 6 6 5 5 5 6 7 6 6 6 6 6 7 6 7 6 7 7 7 8 9 8 8 8 9 10 11 14 13 9 8 9 13
16 14 14 16 20 18 18 19 19 19 19 19 18 19 19 20 21 22 23 23 25 26 28 28 28 28 28 26 23 21 19 18 18 18 17 16 15 14 13 10 11 13 13 11 9 8 7 7 7 6 6 5 5 6 5 5 5 5 5 5 4 4 4 5 5 6 5 7 8 9 9 10 10 10 9 9 10 12 13 14 15 9 5 11 13
16 14 14 17 20 19 18 19 20 20 20 21 20 21 22 22 23 23 24 25 26 27 28 29 28 28 28 25 23 21 18 18 18 18 18 17 15 15 13 11 10 9 9 10 10 8 7 6 6 6 6 6 5 6 5 5 5 4 4 4 3 2 2 5 6 7 7 7 7 10 11 11 12 11 10 10 11 12 13 14 14 12 8 12 11
17 14 14 16 19 17 18 19 20 21 21 22 22 22 23 24 24 25 25 27 28 29 29 30 29 28 27 25 22 20 18 17 17 17 17 16 16 15 13 12 11 10 10 11 10 9 7 7 6 6 5 5 5 4 5 5 4 4 3 3 2 2 4 6 7 6 6 8 8 12 9 8 9 11 10 10 12 12 13 13 13 13 12 12 13
18 15 14 14 15 17 18 19 20 22 23 23 23 25 25 26 26 26 27 28 30 30 31 31 30 30 27 24 21 19 17 16 16 17 17 16 16 15 15 13 12 11 10 11 11 10 9 8 7 5 5 4 4 4 3 4 3 3 2 2 2 3 6 7 8 9 8 7 9 9 8 9 8 11 10 11 11 12 12 13 13 nan 11 12 13
17 16 15 13 14 16 19 20 23 24 25 25 25 26 26 27 27 28 28 29 32 32 32 32 32 30 27 24 20 18 17 15 15 16 16 16 15 14 13 12 11 11 11 12 12 11 11 10 8 6 5 5 4 3 3 3 3 3 3 2 3 4 7 8 9 10 9 9 9 10 9 8 9 8 10 10 10 11 12 13 14 nan 14 16 14
18 15 14 12 11 15 19 21 25 26 27 28 28 28 28 29 29 29 30 31 33 34 34 34 33 31 28 25 20 18 16 15 15 16 15 15 14 14 15 14 12 12 12 12 12 12 11 11 9 7 6 6 5 4 3 3 3 2 2 3 3 6 6 7 7 9 9 6 7 9 11 nan 9 7 10 9 9 10 10 12 14 15 15 16 16
14 13 13 11 11 17 20 23 27 28 29 30 30 31 31 31 32 32 33 34 34 35 35 35 34 31 28 25 21 18 16 15 16 15 15 15 15 14 14 15 14 13 12 12 12 12 11 11 10 9 8 7 7 6 4 4 3 2 1 2 4 5 6 6 7 7 10 5 6 nan nan nan 10 8 11 11 10 11 10 13 14 15 15 15 14
14 15 13 12 13 22 21 24 27 31 31 32 32 33 33 33 34 34 36 36 36 36 35 35 34 31 29 26 21 18 16 15 16 17 15 15 15 14 13 15 16 14 13 12 12 11 10 10 9 9 9 9 8 7 6 4 3 2 1 2 3 4 6 7 6 7 5 6 nan nan nan nan nan 10 11 12 12 12 13 12 10 13 14 13 13
16 16 14 12 16 22 23 26 29 32 33 32 32 34 34 35 36 36 37 38 37 36 35 36 35 32 30 26 22 19 16 15 16 15 15 15 15 15 16 16 16 16 14 13 12 11 10 9 8 8 8 8 7 7 6 5 3 2 1 2 3 5 6 7 7 7 8 8 nan 9 10 nan nan 11 12 13 13 13 12 13 12 12 12 14 14
17 17 16 16 22 24 26 29 30 32 33 32 32 33 34 36 37 37 37 38 38 37 35 36 35 32 30 27 22 19 17 16 16 16 15 15 15 15 15 15 15 16 15 14 12 11 10 9 8 7 7 6 5 6 5 5 3 2 3 3 4 5 7 7 6 6 8 nan nan nan 13 16 nan 10 12 12 12 12 12 12 12 12 13 13 13
18 19 19 18 24 26 28 31 32 32 33 32 32 33 34 35 36 37 38 38 39 37 37 36 35 33 31 27 24 20 20 18 16 16 15 14 15 15 15 16 16 15 15 14 11 9 9 9 9 8 7 6 5 4 3 2 2 3 4 4 5 6 7 8 7 8 10 nan nan 6 10 nan 10 11 12 11 11 11 11 11 10 10 10 10 10
20 24 24 23 24 28 31 32 33 33 33 33 33 33 34 35 36 36 37 38 38 38 38 37 34 33 31 28 25 22 20 19 17 15 15 14 14 15 14 13 15 15 15 13 11 10 10 9 9 8 7 6 5 3 1 1 3 5 5 6 7 7 7 10 8 10 11 nan nan 9 9 8 9 14 12 10 10 9 8 8 7 7 7 7 7
26 29 29 26 25 32 32 32 32 32 32 32 32 31 32 34 35 36 37 37 39 39 38 37 34 32 31 29 27 23 21 19 18 16 16 15 15 15 14 14 15 15 15 13 11 10 10 9 8 7 6 5 3 1 1 2 4 5 7 7 8 9 9 8 9 9 11 nan nan 10 9 8 10 14 13 12 10 9 8 7 7 6 6 7 7
28 31 32 30 29 31 35 31 32 31 31 30 30 30 31 33 34 35 37 38 38 38 38 37 34 32 31 30 27 24 21 20 18 17 16 15 15 15 15 15 15 14 14 13 12 10 10 9 9 7 6 4 2 2 2 4 5 6 7 8 9 9 9 7 7 9 nan nan 10 12 10 11 15 16 16 14 13 12 11 10 9 8 8 9 9
30 32 35 32 30 32 32 34 34 33 31 31 30 31 32 32 35 37 36 37 38 38 38 37 33 31 32 29 27 25 22 21 19 17 16 15 15 15 15 15 15 15 15 14 13 12 10 10 10 8 7 6 4 3 4 5 7 8 8 9 9 9 10 7 7 7 8 nan 9 12 13 13 18 18 18 17 15 14 13 12 11 11 10 11 12
30 34 33 34 32 30 31 31 34 36 33 33 31 31 31 31 34 36 37 37 38 38 38 37 34 31 31 30 27 24 23 22 18 17 16 16 15 15 14 15 15 15 16 15 15 14 12 11 11 9 8 6 5 5 5 6 7 8 9 9 9 10 10 8 6 8 8 nan nan 15 15 15 18 19 19 18 17 16 15 13 13 13 13 13 14
31 31 33 35 33 31 31 31 34 33 32 32 33 32 31 31 34 36 37 38 37 38 38 37 34 30 30 30 27 24 22 23 20 16 17 17 16 14 14 14 14 14 15 16 16 16 15 13 12 12 10 9 7 6 6 7 8 8 8 9 9 10 9 8 8 9 10 nan 14 13 15 17 20 19 19 19 17 17 15 14 14 14 14 14 14
32 33 36 36 34 33 32 32 33 33 33 29 28 31 33 32 35 37 38 39 38 39 39 38 35 30 29 29 27 24 22 21 20 16 17 18 17 15 13 13 13 13 14 16 17 17 17 15 14 14 14 13 11 9 9 10 10 10 11 12 12 11 11 8 10 11 13 nan 13 15 15 20 20 19 18 17 17 16 15 15 15 16 15 14 15
33 35 35 36 35 34 33 31 32 34 31 30 30 30 33 34 36 38 39 40 40 39 40 38 35 31 29 30 30 25 22 20 21 18 18 18 17 15 15 13 12 12 13 14 16 17 18 17 16 15 15 15 14 13 13 12 12 13 13 13 13 11 9 11 13 14 nan 13 14 12 16 16 16 15 15 14 15 15 16 16 16 16 16 15 16
29 35 32 33 35 35 35 32 33 35 33 32 30 30 32 35 35 39 40 41 41 40 40 39 35 31 29 29 30 25 20 18 19 17 19 18 17 12 17 14 11 11 13 13 15 17 17 18 17 15 15 17 16 14 11 10 12 14 15 14 13 10 12 13 14 12 11 13 13 12 12 14 13 13 13 12 13 14 14 15 15 16 16 15 15
28 34 31 32 32 32 31 32 32 35 34 30 29 28 31 33 33 34 36 38 40 40 38 35 33 28 30 28 27 24 23 21 nan 19 nan 19 17 16 16 14 10 11 12 13 14 16 17 17 17 16 17 17 16 12 12 14 15 14 15 14 11 13 14 14 13 10 14 13 13 13 14 14 12 12 11 11 11 12 12 13 14 15 15 16 16
27 33 31 32 30 31 30 31 34 33 35 31 29 29 32 30 33 34 34 38 38 37 34 35 31 nan 28 29 26 23 25 25 22 22 nan 23 20 18 17 14 11 10 11 13 14 14 16 17 17 16 14 14 14 13 13 14 14 17 16 14 13 13 14 12 13 9 14 15 14 13 15 14 13 13 12 11 12 12 13 13 14 15 16 17 17
30 33 33 30 30 28 30 29 33 33 32 29 30 29 30 29 30 32 34 34 36 33 33 32 31 nan nan 27 25 24 23 25 24 22 24 23 23 21 17 14 12 9 11 11 12 14 15 15 15 13 9 9 13 13 15 14 14 16 16 16 16 14 14 15 12 12 13 14 13 15 15 15 14 14 14 14 14 13 14 14 15 15 15 16 17
31 33 33 30 31 29 30 29 32 32 31 30 31 30 30 30 31 33 34 35 34 32 30 27 28 31 29 26 24 23 25 26 24 22 22 23 23 20 17 14 13 11 11 11 12 nan 16 14 nan 12 10 9 10 12 10 15 17 17 17 17 18 15 12 12 13 15 14 13 13 17 18 17 15 17 16 16 15 15 15 15 16 16 17 17 17
33 32 32 31 31 32 31 29 33 31 31 32 32 31 31 30 32 34 35 36 34 30 29 24 27 28 28 24 25 23 26 nan 25 23 22 23 nan nan 18 16 15 13 14 nan nan nan nan 15 11 8 9 6 7 6 13 14 11 12 14 15 16 14 14 12 14 16 15 14 14 19 19 18 18 19 18 18 18 18 18 18 18 18 19 19 19
32 32 31 31 32 31 33 31 31 30 31 32 32 32 30 31 33 34 36 36 32 29 28 25 26 26 27 24 26 23 25 27 27 25 23 nan nan nan nan nan nan nan 15 16 14 14 15 15 11 5 5 11 16 11 11 15 14 12 14 nan nan 14 15 15 14 18 17 16 16 21 20 20 20 22 21 21 21 21 22 22 23 24 23 23 22
32 34 31 32 32 31 34 31 32 31 30 32 34 33 30 33 34 36 36 36 31 27 27 27 27 26 24 26 24 22 22 27 26 25 25 24 nan nan nan nan nan nan 16 18 20 17 13 14 14 7 14 16 11 12 12 11 nan 14 nan nan 16 16 16 16 17 18 17 16 15 19 22 22 22 23 23 23 23 23 24 25 26 26 29 28 29
31 35 32 31 32 31 35 32 32 32 31 30 36 34 34 34 35 34 35 33 29 26 27 28 29 26 24 27 24 21 22 27 27 25 23 21 22 22 nan 21 21 20 19 18 21 19 16 15 14 13 14 11 14 14 12 13 nan 16 nan nan nan 16 16 18 19 17 18 16 16 18 23 23 23 24 25 25 24 24 24 25 25 27 28 28 29
32 34 35 32 32 33 35 32 33 33 33 31 36 37 34 37 36 35 34 31 28 27 27 30 28 27 26 26 25 22 22 26 27 25 24 22 21 21 24 25 24 21 17 18 17 19 18 14 13 14 14 14 13 15 12 13 nan nan nan nan nan 18 18 19 18 17 17 17 18 18 23 25 26 26 27 28 29 29 29 28 27 28 27 26 27
35 37 37 34 33 36 35 32 34 33 34 33 40 41 38 38 37 34 33 29 28 29 29 29 29 27 29 27 25 25 23 25 23 24 26 24 22 23 24 26 23 20 17 18 18 16 16 15 15 18 16 13 14 14 12 15 nan nan nan nan nan 19 19 18 19 17 18 19 19 19 22 26 29 nan nan nan nan nan nan nan nan nan nan nan nan
39 42 37 37 37 36 36 35 34 33 36 37 43 43 39 39 35 32 31 30 32 32 30 27 29 27 30 28 26 27 25 26 25 24 27 24 24 24 24 25 22 19 18 19 16 16 17 15 15 18 17 15 16 17 14 nan nan nan nan nan nan nan 19 18 17 17 17 17 19 20 21 25 nan nan nan nan nan nan nan nan nan nan nan nan nan
41 41 42 39 39 39 37 37 36 36 36 39 43 42 39 36 32 31 30 32 34 34 32 30 29 25 29 29 28 27 27 26 26 25 27 25 26 25 26 25 22 20 18 18 18 19 20 17 13 15 16 17 20 19 15 21 nan nan nan 21 19 19 18 18 19 nan nan nan nan 18 22 24 nan nan nan nan nan nan nan nan nan nan nan nan nan
43 44 44 42 41 40 38 36 36 38 38 39 43 40 37 33 30 31 32 35 34 33 32 31 29 26 27 28 27 28 27 27 28 24 24 28 28 26 28 26 21 20 18 18 21 20 19 16 15 17 17 17 21 22 19 nan nan nan nan 20 22 19 18 nan 17 nan nan nan nan nan nan nan nan nan nan nan nan nan nan nan nan nan nan nan nan
45 46 44 43 42 42 39 37 36 38 38 40 41 37 34 32 30 32 34 34 34 33 33 30 27 27 26 26 28 28 28 27 28 27 26 30 26 28 29 24 22 21 20 20 20 19 17 16 20 17 16 17 20 nan 23 24 22 nan 20 19 18 20 19 nan nan nan nan nan nan nan nan nan nan nan nan nan nan nan nan nan nan nan nan nan nan
44 46 44 42 41 41 38 37 35 37 37 39 38 35 33 32 31 34 35 33 34 31 32 28 27 27 26 27 28 28 29 28 27 29 27 31 22 29 28 23 24 23 19 21 20 19 16 19 19 20 17 16 21 nan 21 22 24 22 19 19 20 nan nan nan nan nan nan nan nan nan nan nan nan nan nan nan nan nan nan nan nan nan nan nan nan
42 45 43 40 38 39 36 36 35 37 37 37 35 34 33 33 32 34 34 32 31 29 30 28 27 28 29 29 30 31 30 29 29 31 34 31 27 25 22 24 24 21 22 19 18 17 17 20 20 21 20 18 20 nan 21 nan 21 22 21 20 19 18 nan nan nan nan nan nan nan nan nan nan nan nan nan nan nan nan nan nan nan nan nan nan nan
42 42 41 37 36 35 34 36 34 37 36 36 34 35 33 32 33 33 33 30 30 27 28 28 27 29 28 30 31 32 35 37 35 33 35 31 30 23 22 20 21 21 21 19 15 19 18 18 20 22 21 20 20 nan nan nan 19 21 21 20 19 nan nan nan nan nan nan nan nan nan nan nan nan nan nan nan nan nan nan nan nan nan nan nan nan
40 38 40 36 34 31 34 35 35 37 37 35 34 35 33 31 32 32 31 29 28 26 28 27 28 28 28 30 34 35 35 34 30 33 36 32 32 27 24 14 18 22 15 16 16 19 18 20 20 21 20 nan nan 20 nan 17 23 22 21 nan nan nan nan nan nan nan nan nan nan nan nan nan nan nan nan nan nan nan nan nan nan nan nan nan nan
38 36 37 35 33 32 34 36 35 37 37 35 35 33 32 30 30 30 30 28 27 28 27 26 27 28 30 31 32 32 31 31 30 36 37 35 31 25 23 20 20 19 14 13 17 21 18 18 23 20 20 24 nan nan nan 18 24 23 nan 19 19 nan nan nan nan nan nan nan nan nan nan nan nan nan nan nan nan nan nan nan nan nan nan nan nan
36 35 36 35 33 32 35 35 34 37 35 34 33 32 31 30 30 29 30 27 28 29 28 28 29 27 28 29 32 31 30 29 30 33 32 32 30 24 22 23 19 16 12 17 19 19 18 20 21 nan 21 nan nan nan nan 18 19 22 19 20 nan nan nan nan nan nan nan nan nan nan nan nan nan nan nan nan nan nan nan nan nan nan nan nan nan
34 34 34 34 33 33 34 34 34 35 33 32 32 31 30 30 31 30 30 29 29 29 28 28 27 27 29 30 30 30 28 28 28 29 29 31 30 26 26 23 22 15 18 20 18 20 22 20 20 22 nan nan nan nan nan 17 19 22 21 19 nan nan nan nan nan nan nan nan nan nan nan nan nan nan nan nan nan nan nan nan nan nan nan nan nan
33 33 34 34 32 32 32 33 33 34 31 30 30 30 31 31 31 30 30 34 30 27 28 29 28 30 30 28 28 28 27 27 28 28 29 30 30 27 25 23 22 20 22 20 22 22 20 20 20 21 nan nan nan nan nan 20 17 17 21 21 nan nan nan nan nan nan nan nan nan nan nan nan nan nan nan nan nan nan nan nan nan nan nan nan nan
31 33 32 32 30 30 32 32 32 32 31 28 31 30 31 32 31 33 38 35 30 28 31 29 29 30 29 29 28 28 28 28 28 27 28 30 28 24 22 24 22 22 20 24 23 23 nan 21 20 22 20 nan nan nan nan nan nan nan 19 14 17 17 nan nan nan nan nan nan nan nan nan nan nan nan nan nan nan nan nan nan nan nan nan nan nan
29 30 29 28 27 28 31 31 31 31 29 30 31 32 32 33 34 41 39 36 27 28 31 32 27 27 30 29 29 29 30 30 28 26 27 28 26 22 25 26 25 22 25 nan nan nan nan nan 22 22 22 nan nan nan nan nan nan nan nan 15 17 13 nan nan nan nan nan nan nan nan nan nan nan nan nan nan nan nan nan nan nan nan nan nan nan
29 28 27 27 26 28 31 30 31 29 29 31 32 34 32 34 35 37 38 31 27 28 30 30 29 25 29 29 30 30 31 31 29 27 26 26 26 26 26 29 28 27 27 26 nan nan nan nan nan nan nan nan nan nan nan nan nan nan nan nan nan nan nan nan nan nan nan nan nan nan nan nan nan nan nan nan nan nan nan nan nan nan nan nan nan
29 28 26 24 25 28 30 32 30 28 29 32 31 34 33 34 35 38 40 32 32 29 29 30 29 29 31 31 31 31 31 30 30 27 27 26 25 26 28 29 30 nan nan nan nan nan nan nan nan nan nan nan 23 nan nan nan nan nan nan nan nan nan nan nan nan nan nan nan nan nan nan nan nan nan nan nan nan nan nan nan nan nan nan nan nan
29 26 23 24 28 31 30 30 30 28 29 33 32 36 35 36 37 40 37 34 33 34 33 33 31 32 34 33 31 31 31 30 28 28 28 26 25 26 28 nan nan nan nan nan nan nan nan nan nan nan nan nan nan nan nan nan nan nan nan nan nan nan nan nan nan nan nan nan nan nan nan nan nan nan nan nan nan nan nan nan nan nan nan nan nan
27 26 25 27 30 29 28 28 29 29 31 33 33 35 34 36 39 39 32 29 34 37 36 35 35 34 34 31 30 30 29 28 28 27 27 27 27 27 nan nan nan nan nan nan nan nan nan nan nan nan nan nan nan nan nan nan nan nan nan nan nan nan nan nan nan nan nan nan nan nan nan nan nan nan nan nan nan nan nan nan nan nan nan nan nan
29 27 28 29 28 28 29 31 31 31 34 35 34 33 32 34 39 38 34 33 35 37 39 37 35 35 34 32 30 30 30 28 27 27 28 30 nan nan nan nan nan nan nan nan nan nan nan nan nan nan nan nan nan nan nan nan nan nan nan nan nan nan nan nan nan nan nan nan nan nan nan nan nan nan nan nan nan nan nan nan nan nan nan nan nan
29 28 28 29 28 28 31 33 32 34 35 37 38 36 35 34 39 39 36 36 36 37 38 37 35 34 34 32 30 31 30 29 28 28 28 31 nan nan nan nan nan nan nan nan nan nan nan nan nan nan nan nan nan nan nan nan nan nan nan nan nan nan nan nan nan nan nan nan nan nan nan nan nan nan nan nan nan nan nan nan nan nan nan nan nan
Wind_Direction
304 314 326 325 329 335 338 337 338 337 331 331 331 331 328 327 323 322 322 323 326 327 330 333 333 333 332 332 325 319 313 309 312 313 310 306 305 302 304 312 309 307 307 301 297 295 289 283 277 274 278 291 298 301 301 309 318 331 327 325 327 324 331 334 346 341 330 323 310 300 301 296 287 276 264 249 245 235 229 223 279 269 274 262 254
313 316 329 331 332 339 340 340 339 336 334 331 333 332 330 327 325 322 323 323 325 328 329 331 331 331 331 330 323 316 311 308 311 314 313 310 309 308 307 302 301 311 311 309 296 293 291 284 278 275 277 290 296 297 306 317 325 326 325 327 328 327 343 2 12 359 346 332 327 311 303 299 288 278 269 258 244 238 238 236 246 265 268 257 254
304 316 331 334 333 339 344 343 340 339 334 331 332 332 331 327 324 322 324 324 325 329 330 331 332 331 331 330 323 316 313 310 309 312 314 310 310 310 309 310 303 295 304 303 294 290 292 290 282 279 276 282 299 306 315 323 334 329 332 321 317 333 3 37 38 37 10 356 334 330 315 297 287 276 273 265 256 248 243 243 246 254 259 248 251
309 319 328 333 333 342 347 346 343 339 337 334 331 331 331 328 325 324 324 325 328 330 333 335 333 332 333 331 324 316 314 307 305 310 313 313 313 313 313 314 315 308 305 304 300 298 298 293 288 281 278 280 290 303 314 324 328 341 334 337 331 10 45 61 66 60 46 25 9 353 354 333 298 277 270 267 263 257 253 249 249 252 250 250 250
314 324 325 336 342 350 351 347 347 342 338 334 334 332 329 328 326 325 325 328 331 334 336 337 335 333 332 332 325 315 310 305 307 310 312 314 315 318 318 318 317 317 310 306 305 301 299 296 286 283 291 290 292 305 315 320 324 329 344 344 7 42 58 71 78 72 64 53 34 24 21 325 312 280 275 269 265 259 255 253 252 nan 250 250 254
321 325 330 340 349 355 353 352 350 345 342 338 335 334 331 328 326 326 328 331 335 337 339 339 336 334 333 332 324 313 307 306 308 309 310 312 313 312 314 313 315 321 319 314 309 304 298 294 292 292 290 291 291 293 308 312 322 330 337 5 36 49 60 69 72 77 76 73 52 27 35 339 305 297 278 275 267 260 259 254 254 nan 250 239 283
318 331 333 338 353 357 354 354 350 347 345 340 339 336 333 331 329 329 331 333 336 338 339 339 337 334 332 331 325 310 305 304 302 304 309 309 308 307 309 314 316 319 324 319 313 310 303 295 292 289 283 280 279 275 277 296 311 326 335 11 45 57 65 76 85 96 93 79 23 28 10 nan 301 299 281 275 268 258 252 273 261 254 250 248 261
320 332 331 331 345 348 350 350 348 346 344 341 339 337 335 333 333 333 332 333 335 337 339 338 337 334 333 332 324 311 304 301 303 304 301 302 302 305 313 316 314 315 320 321 317 316 310 300 293 285 276 267 263 262 262 276 286 302 358 49 64 83 91 100 101 110 118 78 55 nan nan nan 292 297 280 271 265 257 240 279 269 258 253 253 256
323 325 321 316 329 336 342 343 344 343 342 340 337 336 335 334 334 334 332 333 335 337 338 338 336 334 332 331 326 311 305 300 293 293 298 302 305 305 306 310 312 313 315 320 320 315 312 310 300 289 278 266 257 255 257 261 277 291 352 88 100 104 99 95 95 99 75 43 nan nan nan nan nan 297 282 277 271 264 257 279 271 260 258 258 263
323 318 305 299 321 328 331 334 336 338 339 337 336 334 334 334 334 334 332 332 335 337 337 337 334 332 331 332 325 313 303 297 294 294 296 302 304 311 316 315 316 316 313 315 319 317 318 318 312 297 282 270 260 253 250 250 243 226 140 108 107 94 90 85 87 64 24 42 nan 300 282 nan nan 292 288 282 275 272 268 269 279 277 277 263 263
317 311 298 299 311 317 322 327 329 333 336 335 334 333 333 334 334 333 331 332 334 335 336 336 333 331 330 332 325 311 300 295 291 291 291 296 300 309 313 312 315 319 318 317 318 319 321 322 319 312 300 286 265 252 241 232 213 172 143 107 94 98 93 91 98 55 72 nan nan nan 291 281 nan 304 297 290 288 282 282 283 285 278 273 272 271
304 297 294 295 304 310 316 321 324 327 332 333 333 333 333 334 333 332 331 332 333 333 333 334 333 329 329 329 324 313 303 294 288 288 290 293 301 307 316 322 318 318 318 316 310 321 324 326 331 332 325 311 294 260 241 218 172 132 121 107 88 94 103 106 76 61 67 nan nan 314 296 nan 319 310 310 307 298 295 291 292 289 286 279 280 280
294 286 283 291 300 306 311 316 319 323 329 332 332 332 333 333 333 332 331 331 333 332 331 332 332 329 329 329 323 314 303 295 289 289 288 292 298 303 307 313 319 319 321 317 319 325 332 332 337 338 337 328 319 310 268 139 126 127 121 119 110 102 96 102 68 65 71 nan nan 322 315 320 328 326 319 315 313 311 305 302 305 302 301 294 292
272 279 284 290 294 304 307 311 314 320 326 330 331 331 332 331 332 331 331 331 332 331 331 331 331 328 326 327 324 315 304 296 290 288 288 290 295 302 309 317 321 327 324 323 326 330 333 335 337 336 339 341 331 333 97 116 110 109 114 113 110 111 114 89 79 62 48 nan nan 308 325 326 335 329 325 326 331 331 328 328 326 325 316 306 300
279 283 285 287 295 302 306 308 311 315 321 325 327 328 329 329 329 329 329 331 330 330 331 330 330 327 324 325 324 316 307 297 291 286 290 290 295 299 307 315 320 328 329 329 333 331 334 337 337 342 343 346 348 16 71 88 87 91 91 96 97 98 98 74 83 82 nan nan 334 346 337 327 337 333 331 331 338 339 340 339 337 326 322 314 309
285 281 283 289 295 301 305 310 308 312 317 321 324 326 328 328 327 327 328 329 328 329 330 330 328 325 322 323 325 319 309 299 289 289 288 294 297 305 307 313 323 329 335 335 334 335 333 336 340 341 345 336 349 23 45 58 71 73 77 77 84 90 91 72 49 68 66 nan 333 337 330 338 337 337 334 337 336 341 343 343 333 332 327 325 320
279 280 287 291 296 301 303 309 308 310 315 318 321 325 327 325 325 325 325 327 327 327 327 327 326 324 321 321 323 321 310 300 295 291 292 292 299 303 310 315 322 332 334 336 337 338 338 334 335 340 341 346 348 16 36 43 58 69 72 79 79 82 80 76 39 46 56 nan nan 335 337 340 344 342 335 339 341 344 346 345 342 337 340 336 330
281 282 287 292 296 301 304 303 307 311 314 314 320 323 325 324 321 321 323 325 326 326 325 324 324 324 321 319 322 319 315 309 303 297 294 299 296 302 311 318 325 334 336 336 338 341 337 334 332 337 343 353 3 8 24 38 45 53 60 66 72 73 74 77 28 41 45 nan 328 334 332 339 344 345 341 342 347 347 351 354 350 350 349 345 340
277 283 286 290 295 298 301 301 306 309 313 314 319 323 324 322 320 321 322 323 323 323 323 323 323 323 321 315 314 318 314 310 306 302 294 297 302 301 311 319 330 335 339 339 341 342 343 341 340 343 348 351 4 11 21 26 28 32 40 48 50 54 68 56 31 33 41 nan 326 336 343 344 347 345 344 345 348 354 358 1 357 358 357 354 349
275 279 284 289 290 295 296 300 304 306 311 313 317 321 323 322 320 321 321 321 321 323 323 321 321 322 323 316 314 315 315 310 310 301 297 299 297 309 312 317 329 339 337 346 347 347 347 350 351 349 353 357 1 13 22 20 20 27 34 34 36 40 34 26 38 35 nan 325 331 339 342 338 339 338 339 344 352 359 5 3 2 358 360 358 356
273 279 282 286 292 296 299 299 304 307 311 311 314 320 323 322 320 321 321 320 321 325 323 320 319 320 321 321 317 315 314 309 307 301 300 291 303 306 313 315 326 336 339 344 354 352 354 357 360 359 356 0 7 10 20 21 25 29 31 30 23 13 18 27 33 18 323 337 332 337 325 321 326 327 328 338 350 1 3 4 2 2 1 360 355
273 277 284 288 290 294 298 302 302 306 308 310 314 318 322 323 321 321 319 320 322 324 322 320 320 318 325 320 314 313 314 310 nan 306 nan 292 294 305 309 309 319 331 337 350 353 359 358 2 8 9 5 3 5 348 356 10 24 26 25 23 1 5 15 19 22 1 331 336 332 334 317 312 311 312 319 331 343 354 358 360 3 2 0 354 353
278 281 285 292 291 295 301 302 302 305 308 311 313 316 322 322 321 320 319 322 324 326 322 319 320 nan 322 320 313 312 314 310 310 304 nan 295 291 302 302 306 313 330 341 351 357 357 3 8 14 17 14 6 350 348 353 351 353 11 14 2 353 4 10 8 11 345 334 325 328 315 303 299 299 304 309 317 330 341 349 353 353 351 350 348 344
283 284 286 291 297 297 296 299 302 303 305 310 312 316 320 319 318 317 317 320 322 325 322 322 321 nan nan 319 313 307 302 300 310 316 302 286 282 295 303 305 315 328 346 339 353 360 4 9 16 23 16 354 347 348 352 348 343 341 343 350 353 357 1 3 345 322 320 310 316 294 289 290 294 297 303 310 319 332 338 339 335 335 331 333 336
280 284 285 290 296 294 292 300 297 302 308 308 313 316 318 317 317 316 318 318 321 323 319 321 317 319 320 312 307 304 300 300 298 297 292 287 279 278 284 290 292 299 329 319 319 nan 334 339 nan 358 357 358 357 349 343 328 337 338 343 344 350 347 336 329 319 309 311 311 305 284 284 288 291 292 295 302 309 315 317 315 317 318 320 322 322
280 284 290 293 291 295 294 295 298 305 309 310 313 314 315 315 315 315 316 316 321 319 314 318 312 316 309 313 304 306 303 nan 304 303 300 293 nan nan 286 288 290 297 304 nan nan nan nan 326 326 333 340 4 297 313 335 309 318 319 322 326 322 331 321 311 305 308 305 307 298 285 285 287 288 284 287 290 294 295 296 298 300 303 308 311 312
281 284 288 291 290 294 295 295 298 303 309 310 307 308 313 311 311 313 314 314 317 315 311 310 309 311 310 309 302 309 308 308 308 307 305 nan nan nan nan nan nan nan 297 299 297 282 288 289 278 286 277 21 345 339 308 305 306 309 308 nan nan 299 299 302 304 306 306 305 298 286 287 286 286 283 282 283 284 286 287 289 290 292 296 298 298
282 285 291 291 290 293 293 296 300 304 309 305 304 308 308 307 311 312 313 312 312 311 306 306 307 311 310 302 306 309 310 306 304 304 300 300 nan nan nan nan nan nan 291 288 280 279 284 287 295 342 3 3 333 304 302 294 nan 307 nan nan 296 300 294 295 287 297 302 301 300 290 289 288 286 283 282 280 280 280 282 284 285 290 290 294 291
280 285 285 288 287 286 290 296 301 305 304 302 304 304 305 305 306 308 306 307 309 303 304 301 306 310 309 301 305 310 308 304 303 304 300 299 297 289 nan 285 276 270 262 273 276 283 288 299 305 337 339 316 305 317 311 310 nan 297 nan nan nan 301 293 286 294 300 298 298 297 295 289 287 285 285 284 283 284 283 283 285 285 284 283 284 289
275 283 282 283 284 283 289 296 300 303 301 301 297 298 300 300 304 306 303 307 305 301 299 299 303 306 304 301 304 307 303 302 303 307 304 292 281 272 262 261 267 269 273 273 278 288 293 297 318 300 295 298 297 304 317 316 nan nan nan nan nan 288 285 286 292 297 296 298 300 299 288 289 288 288 287 286 288 289 288 287 286 284 285 282 283
276 276 281 282 284 286 291 294 296 297 296 300 294 298 298 300 306 303 302 302 298 294 295 298 300 303 301 301 302 299 298 296 297 297 292 289 283 275 266 262 262 268 277 276 282 287 286 287 282 280 285 296 297 300 314 307 nan nan nan nan nan 284 285 288 297 297 296 299 301 300 293 290 293 nan nan nan nan nan nan nan nan nan nan nan nan
277 279 278 281 283 287 291 291 293 295 292 295 291 296 298 301 302 300 300 300 296 294 295 295 294 297 296 297 293 294 298 299 301 294 290 293 285 277 270 271 274 276 275 275 282 280 279 277 286 291 301 307 305 306 321 nan nan nan nan nan nan nan 284 280 276 284 291 295 300 302 306 304 nan nan nan nan nan nan nan nan nan nan nan nan nan
271 275 279 282 285 286 289 290 294 288 286 290 291 293 296 297 299 299 299 295 295 297 298 295 292 289 285 288 287 294 298 299 298 295 294 294 287 276 270 267 265 270 282 291 288 282 280 285 284 297 299 310 312 306 306 304 nan nan nan 279 278 277 276 280 282 nan nan nan nan 299 311 312 nan nan nan nan nan nan nan nan nan nan nan nan nan
273 271 277 282 282 282 284 286 287 285 288 285 288 291 294 296 298 297 295 293 294 296 295 294 292 286 281 284 288 296 297 296 297 294 292 291 285 278 268 266 267 273 273 272 275 277 280 288 294 294 306 304 304 306 305 nan nan nan nan 281 284 276 277 nan 281 nan nan nan nan nan nan nan nan nan nan nan nan nan nan nan nan nan nan nan nan
271 273 279 280 280 283 283 282 282 283 286 284 286 290 293 295 295 293 290 292 293 292 290 289 286 283 281 284 288 291 296 296 296 296 291 289 290 279 269 267 268 267 268 271 274 275 284 289 278 286 287 302 304 nan 306 303 298 nan 283 277 280 284 279 nan nan nan nan nan nan nan nan nan nan nan nan nan nan nan nan nan nan nan nan nan nan
273 273 277 279 282 281 281 279 280 280 281 282 286 290 292 291 291 291 288 290 290 289 286 287 285 281 281 284 286 289 291 291 290 287 285 278 282 273 268 265 263 264 267 270 278 281 287 281 284 287 289 289 294 nan 300 302 296 289 284 282 275 nan nan nan nan nan nan nan nan nan nan nan nan nan nan nan nan nan nan nan nan nan nan nan nan
272 274 278 281 280 280 280 278 280 278 279 280 285 286 289 290 289 286 287 288 286 286 285 283 282 282 284 283 285 283 282 283 278 266 262 258 251 247 249 256 259 262 262 269 276 284 283 289 293 293 287 292 290 nan 297 nan 297 290 276 267 268 271 nan nan nan nan nan nan nan nan nan nan nan nan nan nan nan nan nan nan nan nan nan nan nan
272 275 279 277 276 276 274 275 276 275 278 280 283 284 286 287 286 285 285 287 286 285 284 282 282 278 279 280 281 277 271 266 269 269 268 263 265 252 239 238 254 254 257 265 271 274 277 275 283 281 285 285 285 nan nan nan 290 285 277 274 271 nan nan nan nan nan nan nan nan nan nan nan nan nan nan nan nan nan nan nan nan nan nan nan nan
272 276 278 275 271 270 270 274 275 275 277 280 281 282 283 282 281 283 284 286 285 285 281 282 279 281 280 275 272 272 282 287 290 282 274 268 267 262 262 263 254 252 257 267 272 274 277 283 279 282 287 nan nan 293 nan 291 277 278 277 nan nan nan nan nan nan nan nan nan nan nan nan nan nan nan nan nan nan nan nan nan nan nan nan nan nan
274 274 274 267 267 264 266 268 271 273 276 279 279 280 281 282 281 283 284 286 286 281 280 280 277 276 276 280 282 285 280 281 272 270 270 271 270 269 269 268 268 269 261 266 274 274 278 282 281 281 286 285 nan nan nan 285 292 288 nan 284 282 nan nan nan nan nan nan nan nan nan nan nan nan nan nan nan nan nan nan nan nan nan nan nan nan
274 272 269 263 263 263 264 270 269 272 275 278 279 281 282 281 280 283 285 285 284 281 278 275 274 279 281 281 278 275 277 276 278 279 277 273 272 270 262 264 269 262 264 267 267 275 277 276 284 nan 286 nan nan nan nan 286 296 290 284 284 nan nan nan nan nan nan nan nan nan nan nan nan nan nan nan nan nan nan nan nan nan nan nan nan nan
270 267 264 262 261 261 263 266 266 270 272 274 275 277 278 279 281 285 285 286 282 283 280 274 275 275 272 268 276 282 278 272 275 281 279 279 277 269 265 265 266 279 281 280 286 279 275 280 277 284 nan nan nan nan nan 284 298 300 297 289 nan nan nan nan nan nan nan nan nan nan nan nan nan nan nan nan nan nan nan nan nan nan nan nan nan
265 262 259 260 260 261 262 264 265 269 269 271 272 274 277 280 283 285 287 278 271 275 274 269 272 273 277 282 280 278 277 276 278 282 282 279 278 276 277 275 280 280 282 289 277 275 277 273 276 278 nan nan nan nan nan 278 284 291 296 295 nan nan nan nan nan nan nan nan nan nan nan nan nan nan nan nan nan nan nan nan nan nan nan nan nan
260 258 259 259 255 257 260 262 264 267 266 268 270 272 277 281 286 282 274 279 279 276 273 272 275 281 283 285 283 281 281 279 281 283 279 276 276 274 272 272 276 275 280 278 280 279 nan 275 267 271 275 nan nan nan nan nan nan nan 296 289 300 302 nan nan nan nan nan nan nan nan nan nan nan nan nan nan nan nan nan nan nan nan nan nan nan
257 256 257 256 250 260 263 265 264 268 268 271 272 274 279 283 282 280 278 275 275 278 279 278 279 279 284 282 280 282 283 283 285 285 281 277 276 274 267 268 274 278 274 nan nan nan nan nan 273 274 271 nan nan nan nan nan nan nan nan 270 283 300 nan nan nan nan nan nan nan nan nan nan nan nan nan nan nan nan nan nan nan nan nan nan nan
256 255 254 254 256 261 264 266 265 272 276 276 276 278 283 286 286 283 278 278 283 283 282 286 287 282 280 278 275 277 279 284 287 284 277 271 268 263 266 274 279 273 274 270 nan nan nan nan nan nan nan nan nan nan nan nan nan nan nan nan nan nan nan nan nan nan nan nan nan nan nan nan nan nan nan nan nan nan nan nan nan nan nan nan nan
256 255 253 256 262 264 265 269 269 273 277 278 280 281 283 285 286 283 283 294 291 286 284 285 285 283 279 276 273 274 277 279 282 282 276 270 265 264 263 267 270 nan nan nan nan nan nan nan nan nan nan nan 275 nan nan nan nan nan nan nan nan nan nan nan nan nan nan nan nan nan nan nan nan nan nan nan nan nan nan nan nan nan nan nan nan
258 259 257 256 264 261 263 272 277 279 278 279 282 281 282 282 282 277 286 295 298 294 293 290 283 278 275 272 270 276 281 284 283 285 282 276 272 267 263 nan nan nan nan nan nan nan nan nan nan nan nan nan nan nan nan nan nan nan nan nan nan nan nan nan nan nan nan nan nan nan nan nan nan nan nan nan nan nan nan nan nan nan nan nan nan
255 254 252 252 256 263 270 271 272 277 276 278 279 281 280 282 283 284 294 298 293 293 290 285 281 279 279 279 279 279 279 280 279 276 281 281 277 271 nan nan nan nan nan nan nan nan nan nan nan nan nan nan nan nan nan nan nan nan nan nan nan nan nan nan nan nan nan nan nan nan nan nan nan nan nan nan nan nan nan nan nan nan nan nan nan
249 254 253 253 260 263 265 264 262 264 268 272 274 279 278 284 288 297 305 303 295 296 293 288 282 281 284 282 281 284 285 281 278 278 280 282 nan nan nan nan nan nan nan nan nan nan nan nan nan nan nan nan nan nan nan nan nan nan nan nan nan nan nan nan nan nan nan nan nan nan nan nan nan nan nan nan nan nan nan nan nan nan nan nan nan
247 253 254 255 260 263 263 264 265 263 268 272 271 272 277 286 294 302 303 301 301 301 297 293 289 286 285 282 283 286 288 285 281 279 279 277 nan nan nan nan nan nan nan nan nan nan nan nan nan nan nan nan nan nan nan nan nan nan nan nan nan nan nan nan nan nan nan nan nan nan nan nan nan nan nan nan nan nan nan nan nan nan nan nan nan